(244761) = 2003 SD98

Discovered at Kitt Peak on 2003-09-19 by Spacewatch.

Orbit

Orbit type: Main Belt

Note: WebGL enabled browser required.

epoch2024-03-31.0
epoch JD2460400.5
perihelion date2022-09-27.60268
perihelion JD2459850.10268
argument of perihelion (°)149.03472
ascending node (°)258.54782
inclination (°)0.52480
eccentricity0.1726198
perihelion distance (AU)1.9995113
Tisserand w.r.t. Jupiter3.5
ΔV w.r.t. Earth (km/sec)8.8
semimajor axis (AU)2.4166777
mean anomaly (°)144.39497
mean daily motion (°/day)0.26234680
aphelion distance (AU)2.834
period (years)3.76
P-vector [x]0.67450626
P-vector [y]0.67546031
P-vector [z]0.29798437
Q-vector [x]-0.73821455
Q-vector [y]0.62198435
Q-vector [z]0.26110293
absolute magnitude16.97
phase slope0.15
uncertainty0
referenceMPEC 2024-F50
observations used566
oppositions13
arc length (days)7487
first opposition used2003
last opposition used2024
residual rms (arc-secs)0.67
perturbers coarse indicatorM-v
perturbers precise indicator003Ek
first observation date used2003-09-19.0
last observation date used2024-03-19.0
computer nameMPCLINUX
JD of orbit computation2456966.723282
perihelion JD uncertainty (days)7.0920E-05
argument of perihelion uncertainty (°)4.2177E-04
ascending node uncertainty (°)4.2133E-04
inclination uncertainty (°)3.1840E-06
eccentricity uncertainty 2.9159E-08
perihelion distance uncertainty (AU)7.2539E-08
Minimum Orbit Intersection Distances (in AU)
for orbit epoch: 2460400.5, reference: E2024-GB3
Mercury1.68176
Venus1.27732
Earth1.00962
Mars0.49974
Jupiter2.54028
Saturn6.82641
Uranus15.7833
Neptune27.7537

Observations

584 total observations over interval: 2003 09 19.33679 – 2024 03 19.534384
These data are available for download (format description).

Date (UT) J2000 RA J2000 Dec Magn Location Ref
2003 09 19.33679 01 55 36.33 +12 44 00.4 20.0 V 291 – LPL/Spacewatch II MPS 85451
2003 09 19.36051 01 55 35.85 +12 43 58.4 20.0 V 291 – LPL/Spacewatch II MPS 85451
2003 09 19.38468 01 55 35.36 +12 43 56.5 20.0 V 291 – LPL/Spacewatch II MPS 85451
2003 09 21.32043 01 54 58.09 +12 40 47.9 19.2   704 – Lincoln Laboratory ETS, New Mexico MPS 85451
2003 09 21.33263 01 54 57.72 +12 40 47.4 20.0   704 – Lincoln Laboratory ETS, New Mexico MPS 85451
2003 09 21.34496 01 54 57.55 +12 40 46.5 19.8   704 – Lincoln Laboratory ETS, New Mexico MPS 85451
2003 09 21.35714 01 54 57.17 +12 40 45.3 20.1   704 – Lincoln Laboratory ETS, New Mexico MPS 85452
2003 09 21.36994 01 54 56.86 +12 40 44.0 19.8   704 – Lincoln Laboratory ETS, New Mexico MPS 85452
2003 09 26.31653 01 52 48.80 +12 29 33.5 19.4   704 – Lincoln Laboratory ETS, New Mexico MPS 86308
2003 09 26.32922 01 52 48.41 +12 29 31.7 19.5   704 – Lincoln Laboratory ETS, New Mexico MPS 86308
2003 09 26.34198 01 52 48.07 +12 29 29.2 19.7   704 – Lincoln Laboratory ETS, New Mexico MPS 86308
2003 09 29.29147 01 51 10.90 +12 20 47.2 19.9   704 – Lincoln Laboratory ETS, New Mexico MPS 87033
2003 09 29.30590 01 51 10.30 +12 20 43.7 19.5   704 – Lincoln Laboratory ETS, New Mexico MPS 87033
2003 09 29.31913 01 51 09.83 +12 20 41.2 19.6   704 – Lincoln Laboratory ETS, New Mexico MPS 87033
2003 09 29.33236 01 51 09.30 +12 20 39.9 19.5   704 – Lincoln Laboratory ETS, New Mexico MPS 87033
2003 09 29.34573 01 51 08.77 +12 20 34.9 19.7   704 – Lincoln Laboratory ETS, New Mexico MPS 87033
2003 09 29.42801 01 51 05.68 +12 20 20.3 19.3 V 691 – Steward Observatory, Kitt Peak-Spacewatch MPS 87033
2003 09 29.45637 01 51 04.60 +12 20 14.7 19.4 V 691 – Steward Observatory, Kitt Peak-Spacewatch MPS 87033
2003 09 29.48367 01 51 03.56 +12 20 09.1 19.5 V 691 – Steward Observatory, Kitt Peak-Spacewatch MPS 87033
2003 10 18.36249 01 36 18.95 +10 55 33.2 19.0 V 691 – Steward Observatory, Kitt Peak-Spacewatch MPS 88164
2003 10 18.39050 01 36 17.37 +10 55 24.2 19.0 V 691 – Steward Observatory, Kitt Peak-Spacewatch MPS 88164
2003 10 18.42095 01 36 15.66 +10 55 14.3 19.1 V 691 – Steward Observatory, Kitt Peak-Spacewatch MPS 88164
2003 10 21.22156 01 33 46.19 +10 40 08.7 18.6 R 699 – Lowell Observatory-LONEOS MPS 88164
2003 10 21.24150 01 33 45.04 +10 40 02.7   699 – Lowell Observatory-LONEOS MPS 88164
2003 10 21.26149 01 33 43.95 +10 39 55.5   699 – Lowell Observatory-LONEOS MPS 88164
2003 10 21.28157 01 33 42.80 +10 39 49.4   699 – Lowell Observatory-LONEOS MPS 88164
2003 10 21.28468 01 33 42.57 +10 39 48.1 18.6   704 – Lincoln Laboratory ETS, New Mexico MPS 88164
2003 10 21.29658 01 33 41.96 +10 39 45.1 19.0   704 – Lincoln Laboratory ETS, New Mexico MPS 88164
2003 10 21.30892 01 33 41.22 +10 39 40.8 19.0   704 – Lincoln Laboratory ETS, New Mexico MPS 88164
2003 10 21.32071 01 33 40.52 +10 39 37.9 19.5   704 – Lincoln Laboratory ETS, New Mexico MPS 88164
2003 10 21.33240 01 33 39.86 +10 39 32.9 19.0   704 – Lincoln Laboratory ETS, New Mexico MPS 88164
2003 10 23.27156 01 31 56.68 +10 29 01.3 18.3   704 – Lincoln Laboratory ETS, New Mexico MPS 88164
2003 10 23.28403 01 31 55.99 +10 28 57.4 18.5   704 – Lincoln Laboratory ETS, New Mexico MPS 88164
2003 10 23.29621 01 31 55.32 +10 28 53.3 18.7   704 – Lincoln Laboratory ETS, New Mexico MPS 88164
2003 10 23.30840 01 31 54.63 +10 28 49.6 19.0   704 – Lincoln Laboratory ETS, New Mexico MPS 88164
2003 10 23.32049 01 31 53.97 +10 28 45.6 18.7   704 – Lincoln Laboratory ETS, New Mexico MPS 88164
2003 10 24.26075 01 31 04.40 +10 23 39.4 18.6   704 – Lincoln Laboratory ETS, New Mexico MPS 88164
2003 10 24.26100 01 31 04.37 +10 23 39.9 19.3   704 – Lincoln Laboratory ETS, New Mexico MPS 88164
2003 10 24.27270 01 31 03.71 +10 23 35.2 19.2   704 – Lincoln Laboratory ETS, New Mexico MPS 88164
2003 10 24.27295 01 31 03.70 +10 23 35.9 19.6   704 – Lincoln Laboratory ETS, New Mexico MPS 88164
2003 10 24.28487 01 31 03.03 +10 23 31.4 19.1   704 – Lincoln Laboratory ETS, New Mexico MPS 88164
2003 10 24.28512 01 31 03.03 +10 23 31.5 19.0   704 – Lincoln Laboratory ETS, New Mexico MPS 88164
2003 10 24.29143 01 31 02.71 +10 23 29.1 18.6   704 – Lincoln Laboratory ETS, New Mexico MPS 88164
2003 10 24.29693 01 31 02.36 +10 23 27.5 19.1   704 – Lincoln Laboratory ETS, New Mexico MPS 88164
2003 10 24.29718 01 31 02.33 +10 23 29.8 19.5   704 – Lincoln Laboratory ETS, New Mexico MPS 88164
2003 10 24.30448 01 31 02.02 +10 23 25.4 19.1   704 – Lincoln Laboratory ETS, New Mexico MPS 88164
2003 10 24.30874 01 31 01.68 +10 23 23.3 19.1   704 – Lincoln Laboratory ETS, New Mexico MPS 88164
2003 10 24.31765 01 31 01.24 +10 23 20.2 18.7   704 – Lincoln Laboratory ETS, New Mexico MPS 88164
2003 10 24.33089 01 31 00.52 +10 23 16.3 19.0   704 – Lincoln Laboratory ETS, New Mexico MPS 88164
2003 10 24.34322 01 30 59.82 +10 23 12.4 18.8   704 – Lincoln Laboratory ETS, New Mexico MPS 88164
2003 10 25.90201 01 29 38.64 +10 14 45.5 18.5 R 106 – Crni Vrh MPS 88164
2003 10 25.90799 01 29 38.35 +10 14 43.6 18.6 R 106 – Crni Vrh MPS 88164
2003 10 25.91395 01 29 37.99 +10 14 41.5 18.4 R 106 – Crni Vrh MPS 88164
2003 10 26.17844 01 29 24.52 +10 13 18.0 19.5 V 691 – Steward Observatory, Kitt Peak-Spacewatch MPS 88164
2003 10 26.20559 01 29 23.08 +10 13 09.0 19.6 V 691 – Steward Observatory, Kitt Peak-Spacewatch MPS 88164
2003 10 26.23274 01 29 21.58 +10 13 00.8 19.5 V 691 – Steward Observatory, Kitt Peak-Spacewatch MPS 88164
2003 10 29.21449 01 26 50.75 +09 57 13.5 19.2   704 – Lincoln Laboratory ETS, New Mexico MPS 89453
2003 10 29.22658 01 26 50.10 +09 57 08.7 19.4   704 – Lincoln Laboratory ETS, New Mexico MPS 89453
2003 10 29.23867 01 26 49.44 +09 57 04.8 19.2   704 – Lincoln Laboratory ETS, New Mexico MPS 89453
2003 10 29.25080 01 26 48.87 +09 57 01.9 19.3   704 – Lincoln Laboratory ETS, New Mexico MPS 89453
2003 11 01.25069 01 24 25.35 +09 41 44.9 18.7   704 – Lincoln Laboratory ETS, New Mexico MPS 90509
2003 11 01.26267 01 24 24.78 +09 41 41.0 18.8   704 – Lincoln Laboratory ETS, New Mexico MPS 90509
2003 11 01.27471 01 24 24.16 +09 41 37.5 18.9   704 – Lincoln Laboratory ETS, New Mexico MPS 90509
2003 11 01.28679 01 24 23.59 +09 41 33.5 19.3   704 – Lincoln Laboratory ETS, New Mexico MPS 90509
2003 11 01.29888 01 24 23.02 +09 41 31.0 19.1   704 – Lincoln Laboratory ETS, New Mexico MPS 90509
2003 11 17.82050 01 15 04.19 +08 37 58.6 19.7 R 185 – Observatoire Astronomique Jurassien-Vicques MPS 90987
2003 11 19.10845 01 14 41.01 +08 34 58.6 20.0   644 – Palomar Mountain/NEAT MPS 90987
2003 11 19.13001 01 14 40.62 +08 34 55.6 19.4   644 – Palomar Mountain/NEAT MPS 90987
2003 11 19.15122 01 14 40.21 +08 34 52.7 19.5   644 – Palomar Mountain/NEAT MPS 90987
2005 03 09.38016 12 27 44.92 -03 52 03.9 19.9 R G96 – Mt. Lemmon Survey MPS 130724
2005 03 09.38671 12 27 44.61 -03 52 01.7 20.0 R G96 – Mt. Lemmon Survey MPS 130724
2005 03 09.39328 12 27 44.27 -03 51 59.8 20.3 R G96 – Mt. Lemmon Survey MPS 130724
2005 03 09.39982 12 27 43.93 -03 51 57.3 19.7 R G96 – Mt. Lemmon Survey MPS 130724
2005 04 05.32299 12 03 37.86 -01 14 55.0 20.2 R G96 – Mt. Lemmon Survey MPS 130724
2005 04 05.32828 12 03 37.60 -01 14 53.4 20.2 R G96 – Mt. Lemmon Survey MPS 130724
2005 04 05.33356 12 03 37.33 -01 14 51.2 19.7 R G96 – Mt. Lemmon Survey MPS 130724
2005 04 05.33884 12 03 37.02 -01 14 49.7 19.6 R G96 – Mt. Lemmon Survey MPS 130724
2007 09 15.44529 04 58 53.72 +23 03 11.7 20.4 V G96 – Mt. Lemmon Survey MPS 217746
2007 09 15.45098 04 58 54.15 +23 03 12.4 19.9 V G96 – Mt. Lemmon Survey MPS 217746
2007 09 15.45671 04 58 54.66 +23 03 12.9 20.0 V G96 – Mt. Lemmon Survey MPS 217746
2007 09 15.46227 04 58 55.12 +23 03 13.9 20.5 V G96 – Mt. Lemmon Survey MPS 217746
2007 09 18.45028 05 03 05.07 +23 08 50.8 19.8 V G96 – Mt. Lemmon Survey MPS 217746
2007 09 18.45609 05 03 05.50 +23 08 51.4 19.8 V G96 – Mt. Lemmon Survey MPS 217746
2007 09 18.46184 05 03 05.97 +23 08 52.0 20.2 V G96 – Mt. Lemmon Survey MPS 217746
2007 09 18.46764 05 03 06.44 +23 08 52.8 20.2 V G96 – Mt. Lemmon Survey MPS 217746
2007 11 05.41551 05 35 07.90 +23 32 27.8 20.3 V 691 – Steward Observatory, Kitt Peak-Spacewatch MPS 224766
